Regional Weather Roundup
Issued by NWS Pendleton, OR

Home | Current Version | Previous Version | Text Only | Print | Product List | Glossary On
Versions: 1 2 3 4 5 6 7 8 9 10 11 12 13 14 15 16 17 18 19 20 21 22 23 24 25 26 27 28 29 30 31 32 33 34 35 36 37 38 39 40 41 42 43 44 45 46 47 48 49 50
998
ASUS46 KPDT 201525
RWRPDT
PENDLETON REGIONAL WEATHER ROUNDUP
NATIONAL WEATHER SERVICE PENDLETON OREGON
800 AM PDT SUN MAY 20 2018

NOTE: FAIR INDICATES FEW OR NO CLOUDS BELOW 12,000 FEET WITH NO
SIGNIFICANT WEATHER AND/OR OBSTRUCTIONS TO VISIBILITY.

# INDICATES UNOFFICIAL STATION AND DATA

WAZ520-201610-
EAST SLOPES OF WASHINGTON CASCADES

CITY            SKY/WX      TMP DP  RH  WIND    PRES   REMARKS
#BULLFROG       N/A         53  52  96  CALM    N/A
#CLE ELUM HS    N/A         50  49  96  CALM    29.92S
#EASTON DOT     N/A         51  50  96  N1      N/A
#ELK HTS DOT    N/A         51  51  100 CALM    N/A
#GLENWOOD       N/A         55  51  86  CALM    29.91R
#NELSON 3SW     N/A         50  48  93  CALM    30.11S
#NILE           N/A         55  53  93  CALM    29.28S
#TEANAWAY 4NE   N/A         52  52  100 CALM    N/A
#TROUT LAKE 1NE N/A         54  49  83  CALM    29.92R
#TROUT LAKE 1E  N/A         49  47  93  CALM    29.98S
$$

WAZ521-201610-
SIMCOE HIGHLANDS

CITY            SKY/WX      TMP DP  RH  WIND    PRES   REMARKS
#BICKLETON HS   N/A         57  47  69  N5      29.61R
#SATUS PASS DOT N/A         58  44  60  S5      N/A
#CENTERVILLE 1SWN/A         55  48  77  W7      29.86S
#GOLDENDALE 1NE N/A         58  36  44  SW3     N/A
#GOLDENDALE 4W  N/A         57  38  49  W7      29.97S
#GOODNOE HILLS  N/A         62  52  70  W9      29.85R
#LYLE 6NE       N/A         55  51  86  SW7     29.95R
#PITT 4SE       N/A         50  48  93  W8      29.95R
$$

WAZ026-201610-
KITTITAS VALLEY

CITY            SKY/WX      TMP DP  RH  WIND    PRES   REMARKS
ELLENSBURG AP   MOCLDY      60  51  72  NW13    29.95R
#ELLENSBURG CWU N/A         59  51  75  N8      29.85R
#ELLENSBURG 3NE N/A         56  52  86  CALM    28.03R
#ELLENSBURG 1E  N/A         58  51  77  NW1     29.97S
#KITTITAS 3S    N/A         58  53  83  W1      29.89S
#MANASTASH RDG  N/A         55  55  100 N9      N/A
#ROCKY CYN DOT  N/A         54  54  100 NW9     N/A
#RYEGRASS DOT   N/A         54  47  77  CALM    N/A
#THORP 6N       N/A         73  49  43  CALM    29.75S
$$

WAZ027-201610-
YAKIMA VALLEY

CITY            SKY/WX      TMP DP  RH  WIND    PRES   REMARKS
YAKIMA AIRPORT  PTCLDY      64  51  63  N7      29.93S
YAKIMA-VAGABOND SUNNY       62  49  62  E7      29.92R
#DONALD 2NE     N/A         71  21  15  W6      28.77R
#GRANDVIEW      N/A         60  50  69  CALM    29.91R
#MABTON         N/A         62  54  75  CALM    29.91R
#MOXEE 2E       N/A         37  N/A N/A SW12    29.79S WCI 29
#NACHES 2SW     N/A         58  52  80  W5      29.92S
#OUTLOOK DOT    N/A         58  51  77  CALM    29.88R
#PARKER DOT     N/A         63  50  62  SE8     29.91R
#TERRACE HTS    N/A         61  51  70  NW1     29.85S
#TOPPENISH      N/A         64  52  65  CALM    29.81R
#I82 S UMTANUM RN/A         59  49  69  W2      N/A
#UNION GAP DOT  N/A         63  50  62  NW5     29.95R
#W YAKIMA       N/A         63  52  67  NE3     29.89S
#WHITE SWAN 5E  N/A         60  53  78  CALM    29.90R
#WILEY CITY 3W  N/A         60  50  69  CALM    29.91
#ZILLAH DOT     N/A         62  52  70  W1      N/A
$$

WAZ028-201610-
LOWER COLUMBIA BASIN...WASHINGTON

CITY            SKY/WX      TMP DP  RH  WIND    PRES   REMARKS
HANFORD         MOCLDY      66  49  54  NW12    29.90S
PASCO           MOCLDY      63  52  67  CALM    29.92R
PROSSER AWOS    N/A         61  55  81  CALM    29.95R
RICHLAND AWOS   CLOUDY      66  52  61  E5      29.92R
#BASIN CITY 5SW N/A         61  54  78  CALM    29.88R
#BENTON CITY    N/A         63  52  67  CALM    29.80R
#CONNELL 5N     N/A         60  52  75  CALM    29.88S
#CONNELL 5NW    N/A         57  51  80  N2      29.83S
#ELTOPIA 6NW    N/A         62  55  78  CALM    28.89R
#KAHLOTUS       N/A         55  52  90  CALM    29.88R
#KENNEWICK 3S   N/A         62  52  70  CALM    29.90R
#PROSSER DOT    N/A         62  52  70  CALM    29.92R
#SAGEMOOR 2W    N/A         58  53  83  CALM    29.75S
#TOUCHET 2S     N/A         60  57  90  CALM    29.88S
#WEST PASCO     N/A         64  52  65  CALM    29.91R
$$

WAZ029-201610-
FOOTHILLS OF THE BLUES...WASHINGTON

CITY            SKY/WX      TMP DP  RH  WIND    PRES   REMARKS
WALLA WALLA AP  CLOUDY      62  53  72  SW7     29.93R
#CLYDE 6NW      N/A         59  54  83  SW5     29.87
#DELANEY DOT    N/A         60  52  75  N3      N/A
#LOWDEN 2SE     N/A         63  56  78  CALM    29.88R
#PLEASANT VIEW 1N/A         61  55  81  S8      29.90R
#PRESCOTT       N/A         63  57  81  CALM    29.88R
#WHITMAN COLLEGEN/A         61  53  75  SW3     29.94R
#WAITSBURG 6SSE N/A         62  52  70  SE3     29.72R
#WAITSBURG 8N   N/A          0  N/A N/A S10     29.65F
#WALLA WALLA 5E N/A         62  55  78  W7      N/A
#WHITMAN MISSIONN/A         61  55  81  CALM    29.91R
$$

WAZ030-201610-
BLUE MOUNTAINS...WASHINGTON

CITY            SKY/WX      TMP DP  RH  WIND    PRES   REMARKS
#DIXIE 5SE      N/A         56  51  83  SE3     29.89R
$$

ORZ009-041-WAZ024-201610-
COLUMBIA RIVER GORGE

CITY            SKY/WX      TMP DP  RH  WIND    PRES   REMARKS
HOOD RIVER AP   PTCLDY      61  50  67  W7      29.98R
THE DALLES AP   MOCLDY      64  50  60  NW10    29.94S
#ARLINGTON AIRPON/A         61  52  72  W10     29.90S
#CELILO DOT     N/A         64  48  56  SW8     N/A
#LYLE           N/A         59  51  75  W10     29.96S
#MARYHILL       N/A         60  48  64  N17     N/A
#MURDOCK        N/A         61  51  70  N13     29.90R
#RUFUS DOT      N/A         63  49  60  W16     N/A
#SMITHVILLE     N/A         62  51  67  NW13G24 29.93R

$$

ORZ510-201610-
NORTH CENTRAL OREGON

CITY            SKY/WX      TMP DP  RH  WIND    PRES   REMARKS
#ANTELOPE       N/A         55  46  72  CALM    29.76R
#CHENOWITH 1W   N/A         52  49  89  W24     N/A
#COW CYN RST AREN/A         54  41  61  W3      N/A
#DUFUR          N/A         55  52  90  CALM    29.90R
#DUFUR 9E       N/A         52  47  83  W3      29.96S
#GRASS VALLEY 1SN/A         56  47  72  W5      29.98R
#KENT DOT       N/A         54  44  69  W6      N/A
#SHANIKO 5WSW   N/A         51  43  74  NW8     N/A
#SHANIKO 4NW    N/A         50  43  77  NW8     29.96R
#WAPANITIA AIRPON/A         56  47  72  W5      29.93S
#WASCO DOT      N/A         59  50  72  W8      N/A
#WASCO 5NE      N/A         57  49  75  W6      29.89R
$$

ORZ511-201610-
CENTRAL OREGON

CITY            SKY/WX      TMP DP  RH  WIND    PRES   REMARKS
BEND AIRPORT    PTCLDY      52  46  80  CALM    29.99R
MADRAS AIRPORT  MOCLDY      55  43  64  NW9     29.99R
PRINEVILLE AP   MOCLDY      55  46  72  W8      29.97R
REDMOND AIRPORT CLOUDY      54  47  77  NW7     29.96S
#ASHWOOD SCHOOL N/A         55  49  80  CALM    29.93R
#BEND 1SW       N/A         50  47  89  CALM    N/A
#BEND-AWBREY    N/A         52  44  74  CALM    29.86R
#BEND-KIM LN    N/A         54  45  71  CALM    29.83S
#CULVER         N/A         53  45  74  CALM    29.72R
#CULVER 8W      N/A         55  44  66  CALM    29.97S
#LAKE BILLY CHINN/A         54  N/A N/A NE1     30.04S
#PRINEVILLE     N/A         56  49  77  CALM    29.95R
#PRINEVILLE 3N  N/A         56  50  80  CALM    29.86S
#WARM SPRINGS   N/A         58  44  60  CALM    29.78R

$$


ORZ509-201610-
EAST SLOPES OF OREGON CASCADES

CITY            SKY/WX      TMP DP  RH  WIND    PRES   REMARKS
SISTERS AWOS    N/A         54  45  71  CALM    29.95S
#CAMP SHERMAN   N/A         53  41  64  CALM    29.95S
#LA PINE 4NW    N/A         47  43  86  CALM    29.89R
#LAVA BUTTE DOT N/A         47  44  89  W7      N/A
#SISTERS ODOT   N/A         53  42  66  SW1     N/A
#SISTERS 3N     N/A         54  42  64  CALM    30.00S
#SUNRIVER       N/A         51  45  80  CALM    29.83R
#TUMALO 3W      N/A         51  42  71  N2      29.75S
#WANOGA BUTTE D N/A         44  N/A N/A NE1     N/A

$$

ORZ044-201610-
LOWER COLUMBIA BASIN...OREGON

CITY            SKY/WX      TMP DP  RH  WIND    PRES   REMARKS
HERMISTON       LGT RAIN    64  55  73  W7      29.91S
#BOARDMAN SCHOOLN/A         60  54  81  SW1     29.91R
#BOARDMAN 8SW   N/A         60  54  81  SW7     29.91R
#ECHO 8SW       N/A         60  55  84  W2      29.92S
#I-84 EX 198 DOTN/A         60  55  84  NE6     N/A
#IONE SCHOOL    N/A         59  41  51  SW3     29.92R
#UMATILLA       N/A         62  53  72  CALM    29.83S
$$

ORZ507-201610-
NORTHERN FOOTHILLS OF THE BLUES

CITY            SKY/WX      TMP DP  RH  WIND    PRES   REMARKS
PENDLETON AIRPT MOCLDY      59  54  83  NW3     29.93R
#ADAMS 3WNW     N/A         57  53  86  W2      29.90R
#ATHENA         N/A         57  54  90  CALM    29.93R
#CAYUSE         N/A         57  54  90  CALM    29.90R
#HELIX SCHOOL   N/A         57  53  86  N1      29.89R
#HELIX 3N       N/A         57  53  86  SW6     29.96R
#HOLDMAN 5SE    N/A         58  54  87  CALM    29.93R
#HOLDMAN 6E     N/A         57  54  90  W2      29.70R
#M-F GROVE ELEM N/A         61  52  72  CALM    29.90R
#M-FREEWATER 5SEN/A         60  55  84  CALM    29.92S
#PENDLETON DNTN N/A         58  55  90  CALM    N/A
#PDT AQUATIC CTRN/A         59  56  90  CALM    29.93R
#PDT SUNRIDGE   N/A         59  56  90  CALM    29.95R
#PENDLETON 6SE  N/A         58  55  90  SE1     29.86R
#PENDLETON 7NW  N/A         59  53  80  CALM    32.35S
#PILOT ROCK     N/A         57  54  90  CALM    29.94S
#TUTUILLA       N/A         55  52  90  CALM    29.99R
#UMAPINE 2E     N/A         62  55  78  CALM    29.89R

$$

ORZ508-201610-
SOUTHERN FOOTHILLS OF THE BLUES

CITY            SKY/WX      TMP DP  RH  WIND    PRES   REMARKS
#AJAX           N/A         56  41  57  CALM    30.11R
#CONDON 5W      N/A         50  46  86  CALM    29.95R
#FOSSIL SCHOOL  N/A         55  51  86  CALM    29.91R
#HEPPNER EOC    N/A         57  51  80  W6      29.83S
#HEPPNER 4NE    N/A         54  51  90  W5      29.88F
#LEXINGTON 2SE  N/A         60  54  81  CALM    29.92S
#MIKKALO        N/A         59  45  60  NW8     30.05S
#OLEX 4N        N/A         58  51  77  W7      29.92R
#RUGGS 5NE      N/A         56  51  83  W7      30.11S
#RUGGS 2SW      N/A         55  51  86  W5      29.90F

$$

ORZ502-503-201610-
BLUE MOUNTAINS

CITY            SKY/WX      TMP DP  RH  WIND    PRES   REMARKS
MEACHAM         LGT RAIN    52  50  93  CALM    29.98R
#BATTLE MTN DOT N/A         49  47  93  CALM    N/A
#GRANITE        N/A         49  48  96  CALM    29.62F
#HARDMAN 10S    N/A         50  48  93  CALM    29.97S
#LADD CREEK ODOTN/A         51  49  93  SW2     N/A
#N POWDER DOT   N/A         50  49  96  W3      N/A
#PIKES PEAK     N/A         54  51  90  S1      27.99S
#SUMMERVILLE 5NWN/A         56  53  90  CALM    26.62R
#TOLLGATE       N/A         49  47  93  CALM    30.04R
#TROY SCHOOL    N/A         56  51  83  CALM    29.75S
#UKIAH          N/A         52  50  93  CALM    29.79F
$$

ORZ505-201610-
JOHN DAY BASIN

CITY            SKY/WX      TMP DP  RH  WIND    PRES   REMARKS
JOHN DAY        CLOUDY      55  53  93  W3      29.96R
#ANTELOPE 9ESE  N/A         61  50  67  NW2     N/A
#MITCHELL 8NW   N/A         53  49  86  CALM    29.90R
#MONUMENT HS    N/A         57  53  86  CALM    29.89S
#MT. VERNON 5SE N/A         51  49  93  W1      29.91R
#SPRAY SCHOOL   N/A         57  N/A N/A CALM    N/A
$$

ORZ506-201610-
OCHOCO AND JOHN DAY HIGHLANDS

CITY            SKY/WX      TMP DP  RH  WIND    PRES   REMARKS
#HORSE RIDGE DO N/A         52  43  71  NW3     N/A
#IZEE 6NW       N/A         58  52  80  CALM    N/A
#KEYES SMT DOT  N/A         49  48  96  NW6     N/A
#PAULINA ODOT   N/A         53  50  89  SW3     N/A
#PINE MTN OBS   N/A         43  41  93  CALM    N/A
#PRAIRIE CITY   N/A         56  52  86  CALM    30.08R
#SENECA         N/A         51  N/A N/A SW1     N/A
#SENECA 9NW     N/A         49  48  96  CALM    29.78F
$$

ORZ049-201610-
GRANDE RONDE VALLEY

CITY            SKY/WX      TMP DP  RH  WIND    PRES   REMARKS
LA GRANDE       LGT RAIN    53  51  93  N6      29.96R
#COVE SCHOOL    N/A         52  50  93  CALM    29.97S
#COVE 6NW       N/A         51  50  96  W1      29.89S
#ELGIN 3N       N/A         53  50  89  CALM    29.94R
#ELGIN 1E       N/A         52  45  77  CALM    N/A
#IMBLER SCHOOL  N/A         51  48  89  CALM    29.93R
#ISLAND CITY 4N N/A         55  48  77  CALM    30.05R
#LADD CYN DOT   N/A         53  52  96  CALM    N/A
#UNION 1S       N/A         53  50  89  CALM    29.88S
$$

ORZ050-201610-
WALLOWA COUNTY

CITY            SKY/WX      TMP DP  RH  WIND    PRES   REMARKS
#ENTERPRISE HS  N/A         52  49  89  CALM    29.78F
#IMNAHA SCHOOL  N/A         59  52  78  S2      29.94S
#JOSEPH         N/A         53  46  77  CALM    30.16S
#JOSEPH 3N      N/A         51  46  83  CALM    30.01S
#JOSEPH 3W      N/A         52  49  89  CALM    29.83R
#LOSTINE        N/A         52  48  86  CALM    29.70F
#LOSTINE 3SE    N/A         51  48  89  S2      30.03S
#MT HOWARD 8000 N/A         44  36  73  CALM    30.06F
#PROMISE 1S     N/A         49  48  96  CALM    29.97F
#WALLOWA LAKE   N/A         48  45  89  CALM    30.00S
#WALLOWA SCHOOL N/A         48  47  96  CALM    29.94R



$$



USA.gov is the U.S. government's official web portal to all federal, state and local government web resources and services.